User: anonymous   Login
Location: Niverville
(49.6028°N, 97.0419°W)
Time: 07:33:18
(UTC-05:00)
Language:

BREEZE-M DEB (TANK) - Orbit

View from above orbital plane
View from above orbital plane
View from above satellite
View from above satellite

Ground track
Ground track

The orbit data is extracted from the following two-line orbital elements,

1 33374U 08044B   16150.34289634  .00000598  00000-0  24715-3 0  9992
2 33374  49.4406 193.6944 5433158 213.8920  95.0456  4.86328500135317
Epoch (UTC): 29 May 2016 08:13:46
Eccentricity: 0.5433158
inclination: 49.4406°
perigee height: 342 km
apogee height: 16333 km
right ascension of ascending node: 193.6944°
argument of perigee: 213.8920°
revolutions per day: 4.86328500
mean anomaly at epoch: 95.0456°
orbit number at epoch: 13531

The dashed part of the orbit path shows where the satellite is in the earth's shadow,  

DLR